Regional Weather Roundup
Issued by NWS

Home | Current Version | Previous Version | Graphics & Text | Print | Product List | Glossary On
Versions: 1 2 3 4 5 6 7 8 9 10 11 12 13 14 15 16 17 18 19 20 21 22 23 24 25 26 27 28 29 30 31 32 33 34 35 36 37 38 39 40 41 42 43 44 45 46 47 48 49 50
514
ASUS43 KMPX 221410
RWRMN
WEATHER ROUNDUP FOR MINNESOTA
NATIONAL WEATHER SERVICE TWIN CITIES/CHANHASSEN MN
900 AM CDT MON MAY 22 2017


NOTE: "FAIR" INDICATES FEW OR NO CLOUDS BELOW 12,000 FEET WITH NO
SIGNIFICANT WEATHER AND/OR OBSTRUCTIONS TO VISIBILITY. N/A MEANS
CURRENT SKY AND/OR WEATHER CONDITIONS ARE NOT AVAILABLE.

MNZ060>063-068>070-221500-
   Twin Cities Metro

CITY           SKY/WX    TMP DP  RH WIND       PRES   REMARKS
TWIN CITIES    MOSUNNY   53  42  66 W8        29.87S
ST PAUL        MOSUNNY   52  44  74 VRB5      29.88S
CRYSTAL        MOSUNNY   53  41  63 W9        29.85S
BLAINE         MOSUNNY   54  46  76 W7        29.85S
LAKEVILLE      SUNNY     55  43  62 W6        29.88S
EDEN PRAIRIE   SUNNY     54  45  71 W7        29.87S
SOUTH ST PAUL  MOSUNNY   54  42  66 W6        29.86F
LAKE ELMO      FAIR      52  45  76 SW7       29.87S
$$
MNZ001>005-007-008-013>017-022>024-027-028-221500-
   Northwest Minnesota

CITY           SKY/WX    TMP DP  RH WIND       PRES   REMARKS
BEMIDJI        CLOUDY    46  44  93 W10       29.78S
HALLOCK        CLOUDY    48  45  87 N18G24    29.82S
ROSEAU         CLOUDY    48  43  81 NW13      29.78S
WARROAD        CLOUDY    46  43  87 NW10      29.77S
THIEF RVR FALL CLOUDY    49  44  83 NW16      29.81R
CROOKSTON      MOSUNNY   52  46  82 N15G22    29.82S
FOSSTON        CLOUDY    46  43  87 W12       29.80S
DETROIT LAKES  MOSUNNY   46  43  87 NW7       29.84S
MOORHEAD       CLOUDY    52  43  71 W14       29.85S
PARK RAPIDS    CLOUDY    48  42  80 W13       29.80S
MAHNOMEN       CLOUDY    47  43  85 W15       29.81F
$$
MNZ006-009>011-018-025>026-221500-
   North Central Minnesota

CITY           SKY/WX    TMP DP  RH WIND       PRES   REMARKS
BAUDETTE       CLOUDY    46  43  89 NW13      29.74S
FLAG ISLAND    CLOUDY    46  43  87 NW16      29.74F
INTL FALLS     CLOUDY    46  43  89 W8        29.72S
WASKISH        CLOUDY    46  45  93 W12       29.75S FOG
BIG FORK       CLOUDY    46  45  93 CALM      29.74S
LONGVILLE      DRIZZLE   46  45  93 W7        29.78S
CRANE LAKE     CLOUDY    45  43  93 W5        29.73S
ORR            CLOUDY    45  41  87 W7        29.70S
COOK           CLOUDY    45  43  93 W8        29.73S
WALKER         CLOUDY    45  42  90 W8        29.78S
$$
MNZ012-019>021-037-221500-
   Northeast Minnesota

CITY           SKY/WX    TMP DP  RH WIND       PRES   REMARKS
DULUTH         CLOUDY    46  43  89 W9        29.75S
ELY            CLOUDY    45  45 100 W7        29.71S FOG
HIBBING        CLOUDY    45  44  97 W7        29.73S
EVELETH        CLOUDY    45  43  93 W6        29.74S FOG
DULUTH HARBOR  CLOUDY    48  45  87 SW10      29.77S
TWO HARBORS    CLOUDY    52  45  76 W12       29.72F
SILVER BAY     CLOUDY    46  45  93 CALM      29.72R FOG
GRAND MARAIS     N/A     41  40  96 W14       29.71S
G MARAIS ARPRT CLOUDY    46  41  81 W5        29.69S
$$
MNZ029>031-032-039>041-046>048-054>057-064-221500-
   West Central Minnesota

CITY           SKY/WX    TMP DP  RH WIND       PRES   REMARKS
FERGUS FALLS   MOSUNNY   48  45  87 NW10      29.86S
WHEATON        LGT RAIN  48  43  81 W3        29.91R
MORRIS         MOSUNNY   48  45  87 W5        29.87S
ALEXANDRIA     SUNNY     50  42  74 NW13      29.86S
ELBOW LAKE     FAIR      47  43  84 NW9       29.87S
WADENA         DRIZZLE   46  43  87 W7        29.83S
GLENWOOD       SUNNY     50  43  76 W10       29.86F
APPLETON       SUNNY     52  41  66 N6        29.88S
BENSON         MOSUNNY   52  43  71 N7        29.89F
ORTONVILLE     SUNNY     50  43  76 N5        29.89S
MADISON        SUNNY     54  45  71 N5        29.89S
WILLMAR        FAIR      52  45  76 NW7       29.89R
$$
MNZ033>034-036-042>043-049>051-058-059-221500-
   Central Minnesota

CITY           SKY/WX    TMP DP  RH WIND       PRES   REMARKS
ST CLOUD       MOSUNNY   51  43  74 NW12      29.85R
SAUK CENTRE    FAIR      49  41  73 NW15      29.85S
PAYNESVILLE    MOSUNNY   49  45  85 NW9       29.87S
AITKIN         CLOUDY    46  43  87 W6        29.78S
PINE RIVER     CLOUDY    46  43  87 W5        29.83S
BRAINERD       LGT RAIN  47  43  86 W14       29.81S
STAPLES        DRIZZLE   46  45  93 NW12      29.82S
LONG PRAIRIE   FAIR      48  41  76 W13       29.84F
LITTLE FALLS   PTSUNNY   50  41  71 W9G17     29.84R
LITCHFIELD     SUNNY     54  46  76 W7        29.87S
BUFFALO        MOSUNNY   51  43  72 W8        29.87S
MAPLE LAKE     SUNNY     53  44  74 W7        29.87S
HUTCHINSON     SUNNY     51  46  82 W7        29.89S
$$
MNZ037-044-045-052-053-221500-
   East Central Minnesota

CITY           SKY/WX    TMP DP  RH WIND       PRES   REMARKS
PRINCETON      SUNNY     54  45  71 W12       29.84S
MORA           CLOUDY    46  41  81 W10       29.83F
CAMBRIDGE      MOSUNNY   54  41  62 W10       29.82S
RUSH CITY      PTSUNNY   50  43  77 W7        29.83S
MOOSE LAKE     CLOUDY    46  41  81 W8        29.77S
HINCKLEY       CLOUDY    46  45  93 W9        29.81S
CLOQUET        CLOUDY    46  43  87 SW7       29.76S
MCGREGOR       CLOUDY    46  43  87 W5        29.78S
$$
MNZ071>073-080-081-089-090-097-098-221500-
   Southwest Minnesota

CITY           SKY/WX    TMP DP  RH WIND       PRES   REMARKS
MONTEVIDEO     SUNNY     54  46  76 VRB6      29.89S
CANBY          SUNNY     53  46  77 CALM      29.89F
MARSHALL       SUNNY     53  45  74 CALM      29.89S
REDWOOD FALLS  SUNNY     54  43  66 N5        29.88S
OLIVIA         SUNNY     52  45  76 NW6       29.88S
PIPESTONE      SUNNY     55  43  62 CALM      29.88S
WINDOM         SUNNY     55  46  71 W6        29.90R
WORTHINGTON    SUNNY     54  47  77 W8        29.90R
JACKSON        CLOUDY    54  45  71 W8        29.89S
TRACY          SUNNY     54  46  76 NW6       29.89S
SLAYTON        SUNNY     54  46  74 W6        29.89S
$$
MNZ065>067-074>077-082>085-091>093-221500-
   South Central Minnesota

CITY           SKY/WX    TMP DP  RH WIND       PRES   REMARKS
MANKATO        MOSUNNY   52  46  80 W3        29.90R
NEW ULM        SUNNY     52  46  82 CALM      29.88S
ST JAMES       SUNNY     52  45  76 CALM      29.90S
FAIRMONT       PTSUNNY   54  47  77 W10       29.89S
GLENCOE        SUNNY     53  48  82 W5        29.88R
FARIBAULT      SUNNY     54  46  76 SW3       29.89S
OWATONNA       SUNNY     54  45  71 S6        29.89R
WASECA         SUNNY     52  45  76 SW8       29.91R
ALBERT LEA     CLOUDY    54  46  76 CALM      29.89F
$$
MNZ078>079-086>088-094>096-221500-
   Southeast Minnesota

CITY           SKY/WX    TMP DP  RH WIND       PRES   REMARKS
ROCHESTER      MOSUNNY   52  46  80 SW12      29.90F
RED WING       SUNNY     55  41  58 W6        29.87S
STANTON        SUNNY     55  45  68 SW3       29.88S
DODGE CENTER   SUNNY     52  45  76 SW9       29.89S
WINONA         SUNNY     55  43  62 SW5       29.90F
AUSTIN         CLOUDY    52  46  82 SW5       29.90S
PRESTON        MOSUNNY   51  44  78 SW8       29.91F
$$
ABBREVIATIONS USED IN REMARKS
   TC - TEMPERATURES IN CELSIUS
  WCI - WIND CHILL INDEX
   HX - HEAT INDEX
  VSB - VISIBILITY
$$




USA.gov is the U.S. government's official web portal to all federal, state and local government web resources and services.